WB4FAY-4 Weather Reports


Display with metric or nautical units.
time (UTC)temp
F
wind
direction
speed
MPH
gust
MPH
rain 1hr
in
rain 24hr
in
rain mn
in
humidity
%
barometer
mb
20260903184018 97 35 6.0 7.0 0.00 0.00 0.00 41 1016.9
20260903183517 97 143 2.0 9.0 0.00 0.00 0.00 42 1017.0
20260903183017 97 83 4.0 11.0 0.00 0.00 0.00 42 1016.9
20260903182517 97 75 3.0 9.0 0.00 0.00 0.00 41 1017.0
20260903182018 97 104 3.0 10.0 0.00 0.00 0.00 41 1017.1
20260903181517 97 31 5.0 5.0 0.00 0.00 0.00 41 1017.2
20260903181017 97 52 0.0 13.0 0.00 0.00 0.00 41 1017.2
20260903180518 97 64 5.0 5.0 0.00 0.00 0.00 41 1017.2
20260903180017 97 78 3.0 7.0 0.00 0.00 0.00 41 1017.3
20260903175517 97 137 2.0 7.0 0.00 0.00 0.00 41 1017.3
20260903175022 97 90 2.0 10.0 0.00 0.00 0.00 42 1017.3
20260903174517 97 54 3.0 7.0 0.00 0.00 0.00 43 1017.4
20260903174017 97 58 0.0 7.0 0.00 0.00 0.00 43 1017.4
20260903173517 97 27 7.0 8.0 0.00 0.00 0.00 43 1017.5
20260903173017 97 79 2.0 5.0 0.00 0.00 0.00 43 1017.6
20260903172517 96 79 2.0 10.0 0.00 0.00 0.00 43 1017.6
20260903172017 96 97 5.0 7.0 0.00 0.00 0.00 44 1017.6
20260903171517 96 114 0.0 6.0 0.00 0.00 0.00 43 1017.7
20260903171017 96 95 3.0 8.0 0.00 0.00 0.00 44 1017.8
20260903170517 95 116 3.0 6.0 0.00 0.00 0.00 45 1017.8
20260903170016 95 11 4.0 6.0 0.00 0.00 0.00 44 1017.8
20260903165517 95 52 2.0 6.0 0.00 0.00 0.00 45 1018.0
20260903165017 95 86 0.0 10.0 0.00 0.00 0.00 46 1017.9
20260903164517 95 93 1.0 9.0 0.00 0.00 0.00 45 1018.0
20260903164017 95 96 2.0 8.0 0.00 0.00 0.00 44 1018.1
20260903163518 95 51 0.0 5.0 0.00 0.00 0.00 45 1018.1
20260903163017 95 100 3.0 6.0 0.00 0.00 0.00 46 1018.2
20260903162517 95 352 0.0 4.0 0.00 0.00 0.00 47 1018.3
20260903162017 95 45 2.0 5.0 0.00 0.00 0.00 48 1018.3
20260903161517 94 83 1.0 6.0 0.00 0.00 0.00 48 1018.4
20260903161017 94 56 2.0 6.0 0.00 0.00 0.00 49 1018.4
20260903160517 94 71 0.0 6.0 0.00 0.00 0.00 50 1018.5
20260903160017 94 89 4.0 5.0 0.00 0.00 0.00 50 1018.5
20260903155517 94 55 5.0 5.0 0.00 0.00 0.00 50 1018.6
20260903155017 93 72 4.0 5.0 0.00 0.00 0.00 51 1018.6
20260903154517 93 49 4.0 5.0 0.00 0.00 0.00 51 1018.6
20260903154017 93 54 0.0 4.0 0.00 0.00 0.00 53 1018.7
20260903153517 92 0 0.0 0.0 0.00 0.00 0.00 53 1018.7
20260903153017 92 0 0.0 0.0 0.00 0.00 0.00 54 1018.7
20260903152517 92 83 0.0 2.0 0.00 0.00 0.00 54 1018.6
20260903152017 91 93 1.0 6.0 0.00 0.00 0.00 55 1018.6
20260903151517 91 103 2.0 3.0 0.00 0.00 0.00 54 1018.5
20260903151017 91 85 0.0 3.0 0.00 0.00 0.00 53 1018.5
20260903150517 91 83 1.0 6.0 0.00 0.00 0.00 54 1018.4
20260903150017 91 0 0.0 0.0 0.00 0.00 0.00 55 1018.4
20260903145517 90 0 0.0 0.0 0.00 0.00 0.00 58 1018.4
20260903145017 90 0 0.0 0.0 0.00 0.00 0.00 60 1018.4
20260903144518 89 92 0.0 4.0 0.00 0.00 0.00 61 1018.3
20260903144017 88 134 0.0 3.0 0.00 0.00 0.00 63 1018.3
20260903143517 88 148 2.0 3.0 0.00 0.00 0.00 63 1018.2
20260903143017 87 138 1.0 4.0 0.00 0.00 0.00 64 1018.2
20260903142517 87 144 1.0 3.0 0.00 0.00 0.00 66 1018.2
20260903142017 86 172 0.0 2.0 0.00 0.00 0.00 67 1018.2
20260903141517 86 121 2.0 4.0 0.00 0.00 0.00 67 1018.3
20260903141018 85 123 1.0 3.0 0.00 0.00 0.00 68 1018.3
20260903140517 85 144 1.0 3.0 0.00 0.00 0.00 70 1018.3
20260903140017 85 92 0.0 3.0 0.00 0.00 0.00 70 1018.3
20260903135517 84 75 1.0 3.0 0.00 0.00 0.00 70 1018.3
20260903135016 83 90 2.0 4.0 0.00 0.00 0.00 71 1018.3
20260903134517 83 103 0.0 2.0 0.00 0.00 0.00 73 1018.3
20260903134017 83 104 1.0 3.0 0.00 0.00 0.00 74 1018.4
20260903133517 82 103 2.0 2.0 0.00 0.00 0.00 75 1018.4
20260903133017 82 106 0.0 2.0 0.00 0.00 0.00 76 1018.5
20260903132517 81 104 0.0 3.0 0.00 0.00 0.00 78 1018.5
20260903132017 81 103 1.0 4.0 0.00 0.00 0.00 79 1018.5
20260903131517 80 0 0.0 0.0 0.00 0.00 0.00 81 1018.5
20260903131017 80 0 0.0 0.0 0.00 0.00 0.00 82 1018.5
20260903130517 80 0 0.0 0.0 0.00 0.00 0.00 83 1018.5
20260903130017 79 0 0.0 0.0 0.00 0.00 0.00 84 1018.4
20260903125517 79 0 0.0 0.0 0.00 0.00 0.00 85 1018.4
20260903125017 78 0 0.0 0.0 0.00 0.00 0.00 86 1018.4
20260903124518 78 0 0.0 0.0 0.00 0.00 0.00 87 1018.3
20260903124017 78 0 0.0 0.0 0.00 0.00 0.00 87 1018.3
20260903123517 77 0 0.0 0.0 0.00 0.00 0.00 87 1018.3
20260903123017 77 0 0.0 0.0 0.00 0.00 0.00 87 1018.3
20260903122518 77 0 0.0 0.0 0.00 0.00 0.00 87 1018.3
20260903122017 77 0 0.0 0.0 0.00 0.00 0.00 87 1018.2
20260903121517 77 0 0.0 0.0 0.00 0.00 0.00 87 1018.2
20260903121018 77 0 0.0 0.0 0.00 0.00 0.00 87 1018.2
20260903120517 77 0 0.0 0.0 0.00 0.00 0.00 87 1018.2
20260903120017 77 0 0.0 0.0 0.00 0.00 0.00 87 1018.2
20260903115517 77 0 0.0 0.0 0.00 0.00 0.00 87 1018.2
20260903115018 77 0 0.0 0.0 0.00 0.00 0.00 87 1018.2
20260903114517 77 0 0.0 0.0 0.00 0.00 0.00 86 1018.2
20260903114017 77 0 0.0 0.0 0.00 0.00 0.00 86 1018.1
20260903113517 77 0 0.0 0.0 0.00 0.00 0.00 86 1018.1
20260903113017 77 0 0.0 0.0 0.00 0.00 0.00 86 1018.0
20260903112517 77 0 0.0 0.0 0.00 0.00 0.00 86 1018.0
20260903112017 77 0 0.0 0.0 0.00 0.00 0.00 86 1018.0
20260903111517 77 0 0.0 0.0 0.00 0.00 0.00 86 1017.9
20260903111017 77 0 0.0 0.0 0.00 0.00 0.00 86 1017.8
20260903110517 77 0 0.0 0.0 0.00 0.00 0.00 85 1017.8
20260903110017 77 0 0.0 0.0 0.00 0.00 0.00 85 1017.7
20260903105517 77 0 0.0 0.0 0.00 0.00 0.00 85 1017.7
20260903105017 77 0 0.0 0.0 0.00 0.00 0.00 85 1017.7
20260903104517 77 0 0.0 0.0 0.00 0.00 0.00 85 1017.7
20260903104017 77 0 0.0 0.0 0.00 0.00 0.00 85 1017.6
20260903103517 77 0 0.0 0.0 0.00 0.00 0.00 85 1017.7
20260903103017 77 0 0.0 0.0 0.00 0.00 0.00 85 1017.7
20260903102518 77 0 0.0 0.0 0.00 0.00 0.00 85 1017.7
20260903102017 77 0 0.0 0.0 0.00 0.00 0.00 85 1017.7
20260903101517 77 0 0.0 0.0 0.00 0.00 0.00 85 1017.7
20260903101017 77 0 0.0 0.0 0.00 0.00 0.00 85 1017.7
20260903100517 77 0 0.0 0.0 0.00 0.00 0.00 85 1017.7
20260903100017 77 0 0.0 0.0 0.00 0.00 0.00 85 1017.7
20260903095517 77 0 0.0 0.0 0.00 0.00 0.00 84 1017.7
20260903095017 77 0 0.0 0.0 0.00 0.00 0.00 85 1017.8
20260903094517 77 0 0.0 0.0 0.00 0.00 0.00 85 1017.7
20260903094017 77 0 0.0 0.0 0.00 0.00 0.00 85 1017.7
20260903093517 77 0 0.0 0.0 0.00 0.00 0.00 85 1017.7
20260903093017 77 0 0.0 0.0 0.00 0.00 0.00 85 1017.7
20260903092517 78 0 0.0 0.0 0.00 0.00 0.00 85 1017.6
20260903092018 77 0 0.0 0.0 0.00 0.00 0.00 84 1017.6
20260903091517 77 0 0.0 0.0 0.00 0.00 0.00 84 1017.7
20260903091017 77 0 0.0 0.0 0.00 0.00 0.00 84 1017.6
20260903090517 78 0 0.0 0.0 0.00 0.00 0.00 84 1017.6
20260903090017 78 0 0.0 0.0 0.00 0.00 0.00 84 1017.6
20260903085517 78 0 0.0 0.0 0.00 0.00 0.00 83 1017.6
20260903085017 78 0 0.0 0.0 0.00 0.00 0.00 83 1017.6
20260903084517 78 0 0.0 0.0 0.00 0.00 0.00 83 1017.6
20260903084017 78 0 0.0 0.0 0.00 0.00 0.00 83 1017.6
20260903083517 78 0 0.0 0.0 0.00 0.00 0.00 83 1017.7
20260903083017 78 0 0.0 0.0 0.00 0.00 0.00 83 1017.7
20260903082517 78 0 0.0 0.0 0.00 0.00 0.00 83 1017.6
20260903082017 78 0 0.0 0.0 0.00 0.00 0.00 82 1017.6
20260903081517 78 0 0.0 0.0 0.00 0.00 0.00 82 1017.6
20260903081017 78 0 0.0 0.0 0.00 0.00 0.00 82 1017.5
20260903080517 78 0 0.0 0.0 0.00 0.00 0.00 82 1017.5
20260903080017 78 0 0.0 0.0 0.00 0.00 0.00 82 1017.4
20260903075517 78 0 0.0 0.0 0.00 0.00 0.00 82 1017.5
20260903075017 79 191 0.0 1.0 0.00 0.00 0.00 81 1017.5
20260903074517 79 0 0.0 0.0 0.00 0.00 0.00 81 1017.5
20260903074017 79 0 0.0 0.0 0.00 0.00 0.00 81 1017.6
20260903073517 79 0 0.0 0.0 0.00 0.00 0.00 81 1017.5
20260903073017 79 72 0.0 0.0 0.00 0.00 0.00 81 1017.6
20260903072517 79 0 0.0 0.0 0.00 0.00 0.00 81 1017.6
20260903072017 79 0 0.0 0.0 0.00 0.00 0.00 80 1017.6
20260903071517 79 0 0.0 0.0 0.00 0.00 0.00 80 1017.5
20260903071018 79 0 0.0 0.0 0.00 0.00 0.00 80 1017.6
20260903070517 79 0 0.0 0.0 0.00 0.00 0.00 80 1017.6
20260903070017 79 0 0.0 0.0 0.00 0.00 0.00 80 1017.6
20260903065517 79 0 0.0 0.0 0.00 0.00 0.00 80 1017.6
20260903065017 79 0 0.0 0.0 0.00 0.00 0.00 80 1017.6
20260903064517 79 0 0.0 0.0 0.00 0.00 0.00 80 1017.7
20260903064017 79 0 0.0 0.0 0.00 0.00 0.00 80 1017.8
20260903063518 79 0 0.0 0.0 0.00 0.00 0.00 80 1017.8
20260903063017 80 0 0.0 0.0 0.00 0.00 0.00 80 1017.8
20260903062517 80 0 0.0 0.0 0.00 0.00 0.00 79 1017.8
20260903062017 80 0 0.0 0.0 0.00 0.00 0.00 79 1017.8
20260903061517 80 0 0.0 0.0 0.00 0.00 0.00 78 1017.8
20260903061017 80 0 0.0 0.0 0.00 0.00 0.00 78 1017.9
20260903060517 80 0 0.0 0.0 0.00 0.00 0.00 78 1017.9
20260903060017 80 0 0.0 0.0 0.00 0.00 0.00 78 1017.8
20260903055517 80 0 0.0 0.0 0.00 0.00 0.00 78 1017.8
20260903055018 80 0 0.0 0.0 0.00 0.00 0.00 78 1017.8
20260903054517 80 0 0.0 0.0 0.00 0.00 0.00 78 1017.8
20260903054017 80 0 0.0 0.0 0.00 0.00 0.00 78 1017.8
20260903053517 80 0 0.0 0.0 0.00 0.00 0.00 79 1017.9
20260903053017 80 0 0.0 0.0 0.00 0.00 0.00 78 1017.9
20260903052517 80 0 0.0 0.0 0.00 0.00 0.00 78 1017.9
20260903052017 80 0 0.0 0.0 0.00 0.00 0.00 78 1017.9
20260903051517 80 0 0.0 0.0 0.00 0.00 0.00 77 1017.9
20260903051018 81 0 0.0 0.0 0.00 0.00 0.00 77 1017.9
20260903050517 80 0 0.0 0.0 0.00 0.00 0.00 76 1017.9
20260903050017 81 0 0.0 0.0 0.00 0.00 0.00 76 1017.9
20260903045517 81 0 0.0 0.0 0.00 0.00 0.00 76 1017.9
20260903045017 81 0 0.0 0.0 0.00 0.00 0.00 75 1017.9
20260903044517 81 0 0.0 0.0 0.00 0.00 0.00 75 1017.9
20260903044017 81 0 0.0 0.0 0.00 0.00 0.00 75 1017.8
20260903043517 81 0 0.0 0.0 0.00 0.00 0.00 75 1017.8
20260903043017 81 0 0.0 0.0 0.00 0.00 0.00 75 1017.8
20260903042517 81 0 0.0 0.0 0.00 0.00 0.00 75 1017.9
20260903042018 81 0 0.0 0.0 0.00 0.00 0.00 75 1017.8
20260903041517 81 0 0.0 0.0 0.00 0.00 0.00 74 1017.9
20260903041017 82 0 0.0 0.0 0.00 0.00 0.00 74 1017.9
20260903040517 81 0 0.0 0.0 0.00 0.00 0.00 73 1017.9
20260903040017 82 0 0.0 0.0 0.00 0.00 0.00 73 1017.8
20260903035517 82 0 0.0 0.0 0.00 0.00 0.00 73 1017.9
20260903035017 82 0 0.0 0.0 0.00 0.00 0.00 73 1017.9
20260903034517 82 0 0.0 0.0 0.00 0.00 0.00 73 1018.0
20260903034017 82 0 0.0 0.0 0.00 0.00 0.00 73 1017.9
20260903033517 82 0 0.0 0.0 0.00 0.00 0.00 73 1017.8
20260903033017 82 0 0.0 0.0 0.00 0.00 0.00 72 1017.8
20260903032517 83 0 0.0 0.0 0.00 0.00 0.00 72 1017.9
20260903032018 82 0 0.0 0.0 0.00 0.00 0.00 72 1017.9
20260903031517 83 0 0.0 0.0 0.00 0.00 0.00 72 1017.9
20260903031017 83 0 0.0 0.0 0.00 0.00 0.00 71 1017.9
20260903030517 83 0 0.0 0.0 0.00 0.00 0.00 71 1017.9
20260903030017 83 0 0.0 0.0 0.00 0.00 0.00 71 1017.8
20260903025518 83 0 0.0 0.0 0.00 0.00 0.00 70 1017.8
20260903025017 83 0 0.0 0.0 0.00 0.00 0.00 70 1017.8
20260903024517 83 0 0.0 0.0 0.00 0.00 0.00 70 1017.8
20260903024017 84 0 0.0 0.0 0.00 0.00 0.00 70 1017.9
20260903023518 84 0 0.0 0.0 0.00 0.00 0.00 69 1017.8
20260903023017 84 0 0.0 0.0 0.00 0.00 0.00 69 1017.8
20260903022517 84 0 0.0 0.0 0.00 0.00 0.00 69 1017.7
20260903022017 84 0 0.0 0.0 0.00 0.00 0.00 68 1017.7
20260903021517 84 0 0.0 0.0 0.00 0.00 0.00 68 1017.8
20260903021016 84 0 0.0 0.0 0.00 0.00 0.00 68 1017.7
20260903020517 84 0 0.0 0.0 0.00 0.00 0.00 68 1017.7
20260903020017 85 0 0.0 0.0 0.00 0.00 0.00 67 1017.8
20260903015517 85 0 0.0 0.0 0.00 0.00 0.00 67 1017.8
20260903015017 85 0 0.0 0.0 0.00 0.00 0.00 67 1017.8
20260903014517 85 0 0.0 0.0 0.00 0.00 0.00 66 1017.6
20260903014017 85 0 0.0 0.0 0.00 0.00 0.00 65 1017.5
20260903013517 85 0 0.0 0.0 0.00 0.00 0.00 65 1017.4
20260903013017 86 0 0.0 0.0 0.00 0.00 0.00 64 1017.3
20260903012517 86 0 0.0 0.0 0.00 0.00 0.00 64 1017.4
20260903012017 86 0 0.0 0.0 0.00 0.00 0.00 63 1017.4
20260903011517 86 0 0.0 0.0 0.00 0.00 0.00 63 1017.3
20260903011017 86 0 0.0 0.0 0.00 0.00 0.00 62 1017.2
20260903010517 86 0 0.0 0.0 0.00 0.00 0.00 62 1017.2
20260903010017 87 72 0.0 0.0 0.00 0.00 0.00 61 1017.1
20260903005517 87 0 0.0 0.0 0.00 0.00 0.00 60 1017.1
20260903005017 87 0 0.0 0.0 0.00 0.00 0.00 60 1017.1
20260903004517 88 0 0.0 0.0 0.00 0.00 0.00 59 1017.1
20260903004017 88 0 0.0 0.0 0.00 0.00 0.00 58 1017.0
20260903003518 88 0 0.0 0.0 0.00 0.00 0.00 58 1017.1
20260903003017 88 0 0.0 0.0 0.00 0.00 0.00 57 1017.0
20260903002517 88 0 0.0 0.0 0.00 0.00 0.00 56 1017.0
20260903002018 89 0 0.0 0.0 0.00 0.00 0.00 56 1017.0
20260903001517 89 0 0.0 0.0 0.00 0.00 0.00 55 1016.9
20260903001017 90 0 0.0 0.0 0.00 0.00 0.00 54 1016.9
20260903000517 90 0 0.0 0.0 0.00 0.00 0.00 53 1017.0
20260903000017 91 0 0.0 0.0 0.00 0.00 0.00 52 1016.9
20260902235517 91 0 0.0 0.0 0.00 0.00 0.00 51 1016.8
20260902235017 92 0 0.0 0.0 0.00 0.00 0.00 50 1016.8
20260902234517 92 62 0.0 2.0 0.00 0.00 0.00 49 1016.9
20260902234018 93 152 1.0 3.0 0.00 0.00 0.00 47 1016.9
20260902233517 93 0 0.0 0.0 0.00 0.00 0.00 47 1016.9
20260902233017 94 158 0.0 3.0 0.00 0.00 0.00 46 1016.8
20260902232522 94 130 2.0 4.0 0.00 0.00 0.00 44 1016.8
20260902232017 95 88 0.0 9.0 0.00 0.00 0.00 43 1016.7
20260902231518 95 80 3.0 6.0 0.00 0.00 0.00 43 1016.6
20260902231017 95 95 0.0 5.0 0.00 0.00 0.00 43 1016.6
20260902230517 95 86 1.0 5.0 0.00 0.00 0.00 44 1016.7
20260902230017 95 93 0.0 7.0 0.00 0.00 0.00 44 1016.7
20260902225518 95 103 2.0 6.0 0.00 0.00 0.00 44 1016.7
20260902225017 95 93 0.0 6.0 0.00 0.00 0.00 43 1016.7
20260902224517 95 42 0.0 6.0 0.00 0.00 0.00 43 1016.8
20260902224017 95 42 2.0 5.0 0.00 0.00 0.00 43 1016.8
20260902223517 95 79 2.0 6.0 0.00 0.00 0.00 42 1016.8
20260902223017 95 100 3.0 9.0 0.00 0.00 0.00 42 1016.9
20260902222517 96 106 2.0 6.0 0.00 0.00 0.00 42 1016.9
20260902222017 96 86 0.0 10.0 0.00 0.00 0.00 42 1017.0
20260902221516 96 99 0.0 7.0 0.00 0.00 0.00 42 1017.0
20260902221017 96 68 1.0 8.0 0.00 0.00 0.00 41 1017.0
20260902220517 96 72 0.0 6.0 0.00 0.00 0.00 42 1017.0
20260902220017 96 66 1.0 5.0 0.00 0.00 0.00 41 1017.0
20260902215517 97 93 3.0 6.0 0.00 0.00 0.00 41 1017.0
20260902215017 97 86 0.0 9.0 0.00 0.00 0.00 40 1016.9
20260902214517 97 92 0.0 8.0 0.00 0.00 0.00 40 1016.9
20260902214017 98 90 5.0 7.0 0.00 0.00 0.00 39 1016.9
20260902213517 98 68 4.0 7.0 0.00 0.00 0.00 38 1017.0
20260902213017 99 86 3.0 8.0 0.00 0.00 0.00 37 1017.0
20260902212517 99 71 0.0 4.0 0.00 0.00 0.00 37 1017.0
20260902212017 99 48 0.0 2.0 0.00 0.00 0.00 36 1016.9
20260902211516 99 65 1.0 8.0 0.00 0.00 0.00 36 1017.0
20260902211018 99 75 4.0 8.0 0.00 0.00 0.00 37 1017.1
20260902210517 99 18 3.0 5.0 0.00 0.00 0.00 37 1017.1
20260902210017 98 103 1.0 5.0 0.00 0.00 0.00 38 1017.1
20260902205517 98 96 0.0 8.0 0.00 0.00 0.00 38 1017.2
20260902205017 98 85 2.0 7.0 0.00 0.00 0.00 39 1017.2
20260902204517 98 106 0.0 8.0 0.00 0.00 0.00 39 1017.2
20260902204017 99 1 3.0 4.0 0.00 0.00 0.00 39 1017.3
20260902203517 99 347 3.0 10.0 0.00 0.00 0.00 39 1017.4
20260902203017 99 164 4.0 4.0 0.00 0.00 0.00 38 1017.5
20260902202517 99 80 1.0 8.0 0.00 0.00 0.00 37 1017.6
20260902202017 99 130 0.0 6.0 0.00 0.00 0.00 37 1017.6
20260902201517 99 97 2.0 5.0 0.00 0.00 0.00 36 1017.7
20260902201018 99 83 1.0 10.0 0.00 0.00 0.00 37 1017.7
20260902200517 98 82 3.0 7.0 0.00 0.00 0.00 38 1017.8
20260902200017 98 47 4.0 8.0 0.00 0.00 0.00 38 1017.8
20260902195517 98 89 0.0 5.0 0.00 0.00 0.00 37 1017.8
20260902195017 98 93 0.0 9.0 0.00 0.00 0.00 39 1017.9
20260902194518 97 102 2.0 5.0 0.00 0.00 0.00 39 1018.0
20260902194017 97 145 0.0 5.0 0.00 0.00 0.00 39 1018.2
20260902193517 97 64 0.0 7.0 0.00 0.00 0.00 39 1018.2
20260902193017 97 99 1.0 5.0 0.00 0.00 0.00 40 1018.3
20260902192517 97 37 5.0 4.0 0.00 0.00 0.00 39 1018.4
20260902192017 97 184 1.0 5.0 0.00 0.00 0.00 38 1018.4
20260902191517 97 83 2.0 6.0 0.00 0.00 0.00 38 1018.5
20260902191017 97 25 1.0 6.0 0.00 0.00 0.00 40 1018.6
20260902190517 97 89 1.0 7.0 0.00 0.00 0.00 40 1018.6
20260902190017 96 309 5.0 3.0 0.00 0.00 0.00 40 1018.7
20260902185517 96 229 1.0 3.0 0.00 0.00 0.00 43 1018.7
20260902185017 96 79 1.0 9.0 0.00 0.00 0.00 41 1018.7
20260902184518 96 3 3.0 5.0 0.00 0.00 0.00 42 1018.8